Location: Praha
(50.0830°N, 14.4670°E)
Time: 15:18:03
(UTC+02:00)

ISS - Pass Details

Date: 24 May 2020
Orbit: 417 x 420 km, 51.6° (Epoch: 25 May)

Event Time Altitude Azimuth Distance (km) Brightness Sun altitude
Rises 23:07:30 0° 286° (WNW) 2,367 0.7 -14.8°
Reaches altitude 10° 23:09:36 10° 285° (WNW) 1,502 -0.4 -14.9°
Maximum altitude 23:12:58 84° 197° (SSW) 426 -3.9 -15.2°
Enters shadow 23:14:42 26° 111° (ESE) 856 -2.6 -15.3°
